Time,TemperatureF,DewpointF,PressureIn,WindDirection,WindDirectionDegrees,WindSpeedMPH,WindSpeedGustMPH,Humidity,HourlyPrecipIn,Conditions,Clouds,dailyrainin,SoftwareType,DateUTC
2013-05-26 00:01:00,41.9,38.2,30.05,SSE,157,0.0,0.0,87,0.00,,,0.00,WUHU21623XXSP,2013-05-26 07:01:00,
2013-05-26 00:06:00,41.7,38.3,30.05,SSE,157,0.0,0.0,88,0.00,,,0.00,WUHU21623XXSP,2013-05-26 07:06:00,
2013-05-26 00:11:00,41.5,38.1,30.05,SSE,157,0.0,0.0,88,0.00,,,0.00,WUHU21623XXSP,2013-05-26 07:11:00,
2013-05-26 00:16:00,41.5,38.1,30.05,SSE,157,0.0,0.0,88,0.00,,,0.00,WUHU21623XXSP,2013-05-26 07:16:00,
2013-05-26 00:21:00,42.1,39.0,30.05,SSE,157,0.0,0.0,89,0.00,,,0.00,WUHU21623XXSP,2013-05-26 07:21:00,
2013-05-26 00:26:00,42.4,39.3,30.05,SSE,157,0.0,0.0,89,0.00,,,0.00,WUHU21623XXSP,2013-05-26 07:26:00,
2013-05-26 00:31:00,42.6,39.5,30.05,SSE,157,0.0,0.0,89,0.00,,,0.00,WUHU21623XXSP,2013-05-26 07:31:00,
2013-05-26 00:36:00,42.3,38.9,30.05,SSE,157,0.0,0.0,88,0.00,,,0.00,WUHU21623XXSP,2013-05-26 07:36:00,
2013-05-26 00:41:00,42.1,38.7,30.05,SSE,157,0.0,0.0,88,0.00,,,0.00,WUHU21623XXSP,2013-05-26 07:41:00,
2013-05-26 00:46:00,42.1,38.7,30.05,SSE,157,0.0,0.0,88,0.00,,,0.00,WUHU21623XXSP,2013-05-26 07:46:00,
2013-05-26 00:51:00,41.7,38.3,30.05,SSE,157,0.0,0.0,88,0.00,,,0.00,WUHU21623XXSP,2013-05-26 07:51:00,
2013-05-26 00:56:00,41.4,38.0,30.05,SSE,157,0.0,0.0,88,0.00,,,0.00,WUHU21623XXSP,2013-05-26 07:56:00,
2013-05-26 01:01:00,41.4,38.0,30.05,SSE,157,0.0,0.0,88,0.00,,,0.00,WUHU21623XXSP,2013-05-26 08:01:00,
2013-05-26 01:06:00,41.4,38.0,30.05,SSE,157,0.0,0.0,88,0.00,,,0.00,WUHU21623XXSP,2013-05-26 08:06:00,
2013-05-26 01:11:00,41.4,38.0,30.05,SE,135,0.0,0.0,88,0.00,,,0.00,WUHU21623XXSP,2013-05-26 08:11:00,
2013-05-26 01:16:00,41.5,38.4,30.04,NNE,22,0.0,0.0,89,0.00,,,0.00,WUHU21623XXSP,2013-05-26 08:16:00,
2013-05-26 01:21:00,42.1,39.0,30.04,NNE,22,0.0,0.0,89,0.00,,,0.00,WUHU21623XXSP,2013-05-26 08:21:00,
2013-05-26 01:26:00,42.6,39.5,30.04,NNE,22,0.0,0.0,89,0.00,,,0.00,WUHU21623XXSP,2013-05-26 08:26:00,
2013-05-26 01:31:00,43.0,39.9,30.04,NNE,22,0.0,0.0,89,0.00,,,0.00,WUHU21623XXSP,2013-05-26 08:31:00,
2013-05-26 01:36:00,43.2,39.8,30.04,NNE,22,0.0,0.0,88,0.00,,,0.00,WUHU21623XXSP,2013-05-26 08:36:00,
2013-05-26 01:41:00,43.2,39.8,30.04,NNE,22,0.0,0.0,88,0.00,,,0.00,WUHU21623XXSP,2013-05-26 08:41:00,
2013-05-26 01:46:00,43.3,39.9,30.04,NNE,22,0.0,0.0,88,0.00,,,0.00,WUHU21623XXSP,2013-05-26 08:46:00,
2013-05-26 01:51:00,43.3,39.9,30.04,NNE,22,0.0,0.0,88,0.00,,,0.00,WUHU21623XXSP,2013-05-26 08:51:00,
2013-05-26 01:56:00,43.5,40.1,30.04,NNE,22,0.0,0.0,88,0.00,,,0.00,WUHU21623XXSP,2013-05-26 08:56:00,
2013-05-26 02:01:00,43.5,40.1,30.04,NNE,22,4.9,4.9,88,0.00,,,0.00,WUHU21623XXSP,2013-05-26 09:01:00,
2013-05-26 02:06:00,43.5,40.1,30.04,NNE,22,4.9,4.9,88,0.00,,,0.00,WUHU21623XXSP,2013-05-26 09:06:00,
2013-05-26 02:11:00,43.5,40.1,30.04,NNE,22,0.0,4.9,88,0.00,,,0.00,WUHU21623XXSP,2013-05-26 09:11:00,
2013-05-26 02:16:00,43.3,39.6,30.04,NNE,22,0.0,0.0,87,0.00,,,0.00,WUHU21623XXSP,2013-05-26 09:16:00,
2013-05-26 02:21:00,43.3,39.9,30.04,NNE,22,0.0,0.0,88,0.00,,,0.00,WUHU21623XXSP,2013-05-26 09:21:00,
2013-05-26 02:26:00,43.2,39.8,30.04,NNE,22,0.0,0.0,88,0.00,,,0.00,WUHU21623XXSP,2013-05-26 09:26:00,
2013-05-26 02:31:00,43.0,39.6,30.04,NNE,22,0.0,0.0,88,0.00,,,0.00,WUHU21623XXSP,2013-05-26 09:31:00,
2013-05-26 02:36:00,43.0,39.6,30.04,NNE,22,0.0,0.0,88,0.00,,,0.00,WUHU21623XXSP,2013-05-26 09:36:00,
2013-05-26 02:41:00,42.8,39.7,30.04,NNE,22,0.0,0.0,89,0.00,,,0.00,WUHU21623XXSP,2013-05-26 09:41:00,
2013-05-26 02:46:00,42.6,39.5,30.04,NNE,22,0.0,0.0,89,0.00,,,0.00,WUHU21623XXSP,2013-05-26 09:46:00,
2013-05-26 02:51:00,42.6,39.5,30.04,NNE,22,0.0,0.0,89,0.00,,,0.00,WUHU21623XXSP,2013-05-26 09:51:00,
2013-05-26 02:56:00,42.6,39.5,30.04,NNE,22,0.0,0.0,89,0.00,,,0.00,WUHU21623XXSP,2013-05-26 09:56:00,
2013-05-26 03:01:00,42.6,39.5,30.04,NNE,22,0.0,0.0,89,0.00,,,0.00,WUHU21623XXSP,2013-05-26 10:01:00,
2013-05-26 03:06:00,42.4,39.3,30.04,NNE,22,0.0,0.0,89,0.00,,,0.00,WUHU21623XXSP,2013-05-26 10:06:00,
2013-05-26 03:11:00,42.4,39.3,30.04,NNE,22,0.0,0.0,89,0.00,,,0.00,WUHU21623XXSP,2013-05-26 10:11:00,
2013-05-26 03:16:00,42.4,39.3,30.04,NNE,22,0.0,0.0,89,0.00,,,0.00,WUHU21623XXSP,2013-05-26 10:16:00,
2013-05-26 03:21:00,42.4,39.6,30.04,NNE,22,0.0,0.0,90,0.00,,,0.00,WUHU21623XXSP,2013-05-26 10:21:00,
2013-05-26 03:26:00,42.4,39.6,30.04,NNE,22,0.0,0.0,90,0.00,,,0.00,WUHU21623XXSP,2013-05-26 10:26:00,
2013-05-26 03:31:00,42.6,39.8,30.04,NNE,22,0.0,0.0,90,0.00,,,0.00,WUHU21623XXSP,2013-05-26 10:31:00,
2013-05-26 03:36:00,42.6,39.8,30.04,NNE,22,0.0,0.0,90,0.00,,,0.00,WUHU21623XXSP,2013-05-26 10:36:00,
2013-05-26 03:41:00,42.6,39.8,30.03,NNE,22,0.0,0.0,90,0.00,,,0.00,WUHU21623XXSP,2013-05-26 10:41:00,
2013-05-26 03:46:00,42.6,39.8,30.03,NNE,22,0.0,0.0,90,0.00,,,0.00,WUHU21623XXSP,2013-05-26 10:46:00,
2013-05-26 03:51:00,42.6,39.8,30.03,NNE,22,0.0,0.0,90,0.00,,,0.00,WUHU21623XXSP,2013-05-26 10:51:00,
2013-05-26 03:56:00,42.6,40.1,30.04,NNE,22,0.0,0.0,91,0.00,,,0.00,WUHU21623XXSP,2013-05-26 10:56:00,
2013-05-26 04:01:00,43.0,40.5,30.03,NNE,22,0.0,0.0,91,0.00,,,0.00,WUHU21623XXSP,2013-05-26 11:01:00,
2013-05-26 04:06:00,42.8,40.3,30.04,NNE,22,0.0,0.0,91,0.00,,,0.00,WUHU21623XXSP,2013-05-26 11:06:00,
2013-05-26 04:11:00,42.6,39.8,30.04,NNE,22,0.0,0.0,90,0.00,,,0.00,WUHU21623XXSP,2013-05-26 11:11:00,
2013-05-26 04:16:00,42.6,39.8,30.04,NNE,22,0.0,0.0,90,0.00,,,0.00,WUHU21623XXSP,2013-05-26 11:16:00,
2013-05-26 04:21:00,42.6,39.8,30.04,NNE,22,0.0,0.0,90,0.00,,,0.00,WUHU21623XXSP,2013-05-26 11:21:00,
2013-05-26 04:26:00,42.6,39.8,30.04,NNE,22,0.0,0.0,90,0.00,,,0.00,WUHU21623XXSP,2013-05-26 11:26:00,
2013-05-26 04:31:00,42.6,39.8,30.03,NNE,22,0.0,0.0,90,0.00,,,0.00,WUHU21623XXSP,2013-05-26 11:31:00,
2013-05-26 04:36:00,42.6,39.8,30.03,NNE,22,0.0,0.0,90,0.00,,,0.00,WUHU21623XXSP,2013-05-26 11:36:00,
2013-05-26 04:41:00,42.6,39.8,30.03,NNE,22,0.0,0.0,90,0.00,,,0.00,WUHU21623XXSP,2013-05-26 11:41:00,
2013-05-26 04:46:00,42.6,39.8,30.03,NNE,22,0.0,0.0,90,0.00,,,0.00,WUHU21623XXSP,2013-05-26 11:46:00,
2013-05-26 04:51:00,42.1,39.3,30.03,NNE,22,0.0,0.0,90,0.00,,,0.00,WUHU21623XXSP,2013-05-26 11:51:00,
2013-05-26 04:56:00,41.0,38.2,30.04,NNE,22,0.0,0.0,90,0.00,,,0.00,WUHU21623XXSP,2013-05-26 11:56:00,
2013-05-26 05:01:00,40.6,38.1,30.04,NNE,22,0.0,0.0,91,0.00,,,0.00,WUHU21623XXSP,2013-05-26 12:01:00,
2013-05-26 05:06:00,40.3,37.8,30.04,NNE,22,0.0,0.0,91,0.00,,,0.00,WUHU21623XXSP,2013-05-26 12:06:00,
2013-05-26 05:11:00,39.9,37.4,30.04,NNE,22,0.0,0.0,91,0.00,,,0.00,WUHU21623XXSP,2013-05-26 12:11:00,
2013-05-26 05:16:00,39.7,37.2,30.03,NNE,22,0.0,0.0,91,0.00,,,0.00,WUHU21623XXSP,2013-05-26 12:16:00,
2013-05-26 05:21:00,39.9,37.7,30.04,NNE,22,0.0,0.0,92,0.00,,,0.00,WUHU21623XXSP,2013-05-26 12:21:00,
2013-05-26 05:26:00,40.3,38.1,30.04,NNE,22,0.0,0.0,92,0.00,,,0.00,WUHU21623XXSP,2013-05-26 12:26:00,
2013-05-26 05:31:00,41.5,39.5,30.04,NNE,22,0.0,0.0,93,0.00,,,0.00,WUHU21623XXSP,2013-05-26 12:31:00,
2013-05-26 05:36:00,43.3,41.6,30.04,NNE,22,0.0,0.0,94,0.00,,,0.00,WUHU21623XXSP,2013-05-26 12:36:00,
2013-05-26 05:41:00,46.6,43.7,30.04,NNE,22,0.0,0.0,90,0.00,,,0.00,WUHU21623XXSP,2013-05-26 12:41:00,
2013-05-26 05:46:00,48.2,44.7,30.04,NNE,22,0.0,0.0,88,0.00,,,0.00,WUHU21623XXSP,2013-05-26 12:46:00,
2013-05-26 05:51:00,49.1,45.0,30.04,NNE,22,0.0,0.0,86,0.00,,,0.00,WUHU21623XXSP,2013-05-26 12:51:00,
2013-05-26 05:56:00,49.8,45.1,30.04,NNE,22,0.0,0.0,84,0.00,,,0.00,WUHU21623XXSP,2013-05-26 12:56:00,
2013-05-26 06:01:00,49.8,44.8,30.04,NNE,22,0.0,0.0,83,0.00,,,0.00,WUHU21623XXSP,2013-05-26 13:01:00,
2013-05-26 06:06:00,49.6,44.3,30.04,NNE,22,0.0,0.0,82,0.00,,,0.00,WUHU21623XXSP,2013-05-26 13:06:00,
2013-05-26 06:11:00,50.2,44.9,30.04,NNE,22,0.0,0.0,82,0.00,,,0.00,WUHU21623XXSP,2013-05-26 13:11:00,
2013-05-26 06:16:00,50.9,45.2,30.04,NNE,22,0.0,0.0,81,0.00,,,0.00,WUHU21623XXSP,2013-05-26 13:16:00,
2013-05-26 06:21:00,51.1,45.1,30.04,NNE,22,0.0,0.0,80,0.00,,,0.00,WUHU21623XXSP,2013-05-26 13:21:00,
2013-05-26 06:26:00,50.2,44.2,30.04,NNE,22,0.0,0.0,80,0.00,,,0.00,WUHU21623XXSP,2013-05-26 13:26:00,
2013-05-26 06:31:00,50.2,44.6,30.04,NNE,22,0.0,0.0,81,0.00,,,0.00,WUHU21623XXSP,2013-05-26 13:31:00,
2013-05-26 06:36:00,51.8,46.1,30.04,NNE,22,0.0,0.0,81,0.00,,,0.00,WUHU21623XXSP,2013-05-26 13:36:00,
2013-05-26 06:41:00,51.6,45.3,30.04,NNE,22,2.9,2.9,79,0.00,,,0.00,WUHU21623XXSP,2013-05-26 13:41:00,
2013-05-26 06:46:00,50.5,44.5,30.04,NNE,22,0.0,2.9,80,0.00,,,0.00,WUHU21623XXSP,2013-05-26 13:46:00,
2013-05-26 06:51:00,49.6,44.0,30.04,NNE,22,0.0,0.0,81,0.00,,,0.00,WUHU21623XXSP,2013-05-26 13:51:00,
2013-05-26 06:56:00,49.3,44.0,30.04,NNE,22,0.4,0.4,82,0.00,,,0.00,WUHU21623XXSP,2013-05-26 13:56:00,
2013-05-26 07:01:00,48.9,43.9,30.04,North,0,0.0,0.4,83,0.00,,,0.00,WUHU21623XXSP,2013-05-26 14:01:00,
2013-05-26 07:06:00,48.7,43.7,30.04,NNE,22,0.0,0.0,83,0.00,,,0.00,WUHU21623XXSP,2013-05-26 14:06:00,
2013-05-26 07:11:00,48.9,44.2,30.04,NNE,22,0.0,0.0,84,0.00,,,0.00,WUHU21623XXSP,2013-05-26 14:11:00,
2013-05-26 07:16:00,49.3,44.3,30.04,NE,45,0.0,0.0,83,0.00,,,0.00,WUHU21623XXSP,2013-05-26 14:16:00,
2013-05-26 07:21:00,49.6,44.6,30.04,NE,45,8.5,8.5,83,0.00,,,0.00,WUHU21623XXSP,2013-05-26 14:21:00,
2013-05-26 07:26:00,49.8,44.5,30.04,NE,45,0.0,8.5,82,0.00,,,0.00,WUHU21623XXSP,2013-05-26 14:26:00,
2013-05-26 07:31:00,49.8,44.5,30.04,NE,45,6.9,7.4,82,0.00,,,0.00,WUHU21623XXSP,2013-05-26 14:31:00,
2013-05-26 07:36:00,50.0,44.4,30.04,NNE,22,5.4,7.4,81,0.00,,,0.00,WUHU21623XXSP,2013-05-26 14:36:00,
2013-05-26 07:41:00,50.7,45.4,30.04,NNE,22,5.6,6.9,82,0.00,,,0.00,WUHU21623XXSP,2013-05-26 14:41:00,
2013-05-26 07:46:00,51.8,46.1,30.04,NNE,22,0.0,6.3,81,0.00,,,0.00,WUHU21623XXSP,2013-05-26 14:46:00,
2013-05-26 07:51:00,54.0,47.3,30.04,North,0,3.8,6.9,78,0.00,,,0.00,WUHU21623XXSP,2013-05-26 14:51:00,
2013-05-26 07:56:00,55.6,48.2,30.04,NNE,22,7.4,7.4,76,0.00,,,0.00,WUHU21623XXSP,2013-05-26 14:56:00,
2013-05-26 08:01:00,56.1,47.2,30.04,North,0,7.4,7.4,72,0.00,,,0.00,WUHU21623XXSP,2013-05-26 15:01:00,
2013-05-26 08:06:00,55.9,47.0,30.04,North,0,6.5,7.4,72,0.00,,,0.00,WUHU21623XXSP,2013-05-26 15:06:00,
2013-05-26 08:11:00,55.9,46.7,30.04,NNE,22,6.5,6.9,71,0.00,,,0.00,WUHU21623XXSP,2013-05-26 15:11:00,
2013-05-26 08:16:00,55.2,46.4,30.04,North,0,7.4,7.4,72,0.00,,,0.00,WUHU21623XXSP,2013-05-26 15:16:00,
2013-05-26 08:21:00,55.8,46.9,30.04,North,0,4.9,7.4,72,0.00,,,0.00,WUHU21623XXSP,2013-05-26 15:21:00,
2013-05-26 08:26:00,57.4,48.1,30.04,NNE,22,8.1,8.1,71,0.00,,,0.00,WUHU21623XXSP,2013-05-26 15:26:00,
2013-05-26 08:31:00,56.8,46.8,30.04,NE,45,8.5,8.5,69,0.00,,,0.00,WUHU21623XXSP,2013-05-26 15:31:00,
2013-05-26 08:36:00,55.9,46.7,30.04,NNE,22,6.9,8.5,71,0.00,,,0.00,WUHU21623XXSP,2013-05-26 15:36:00,
2013-05-26 08:41:00,57.0,47.7,30.04,North,0,6.3,8.5,71,0.00,,,0.00,WUHU21623XXSP,2013-05-26 15:41:00,
2013-05-26 08:46:00,58.8,48.3,30.04,North,0,6.5,8.3,68,0.00,,,0.00,WUHU21623XXSP,2013-05-26 15:46:00,
2013-05-26 08:51:00,60.4,49.1,30.04,North,0,6.3,7.4,66,0.00,,,0.00,WUHU21623XXSP,2013-05-26 15:51:00,
2013-05-26 08:56:00,60.6,48.8,30.04,NE,45,7.8,7.8,65,0.00,,,0.00,WUHU21623XXSP,2013-05-26 15:56:00,
2013-05-26 09:01:00,61.0,49.2,30.04,NNE,22,7.4,7.8,65,0.00,,,0.00,WUHU21623XXSP,2013-05-26 16:01:00,
2013-05-26 09:06:00,61.5,49.3,30.04,NNE,22,6.5,7.4,64,0.00,,,0.00,WUHU21623XXSP,2013-05-26 16:06:00,
2013-05-26 09:11:00,61.7,49.5,30.04,North,0,8.1,8.1,64,0.00,,,0.00,WUHU21623XXSP,2013-05-26 16:11:00,
2013-05-26 09:16:00,61.5,48.8,30.04,NNE,22,6.9,8.1,63,0.00,,,0.00,WUHU21623XXSP,2013-05-26 16:16:00,
2013-05-26 09:21:00,61.9,49.7,30.03,North,0,6.9,7.4,64,0.00,,,0.00,WUHU21623XXSP,2013-05-26 16:21:00,
2013-05-26 09:26:00,61.9,49.2,30.03,NE,45,4.9,7.4,63,0.00,,,0.00,WUHU21623XXSP,2013-05-26 16:26:00,
2013-05-26 09:31:00,61.3,48.7,30.03,NNE,22,1.8,7.2,63,0.00,,,0.00,WUHU21623XXSP,2013-05-26 16:31:00,
2013-05-26 09:36:00,61.9,49.2,30.03,NNE,22,0.0,8.3,63,0.00,,,0.00,WUHU21623XXSP,2013-05-26 16:36:00,
2013-05-26 09:41:00,62.4,49.7,30.03,NNE,22,7.8,8.3,63,0.00,,,0.00,WUHU21623XXSP,2013-05-26 16:41:00,
2013-05-26 09:46:00,62.8,50.5,30.03,North,0,5.4,7.8,64,0.00,,,0.00,WUHU21623XXSP,2013-05-26 16:46:00,
2013-05-26 09:51:00,63.1,50.4,30.03,NNE,22,3.6,6.0,63,0.00,,,0.00,WUHU21623XXSP,2013-05-26 16:51:00,
2013-05-26 09:56:00,63.3,51.0,30.02,NNE,22,2.7,6.0,64,0.00,,,0.00,WUHU21623XXSP,2013-05-26 16:56:00,
2013-05-26 10:01:00,63.9,51.1,30.02,NE,45,5.1,7.2,63,0.00,,,0.00,WUHU21623XXSP,2013-05-26 17:01:00,
2013-05-26 10:06:00,63.9,50.7,30.03,NNE,22,0.0,7.2,62,0.00,,,0.00,WUHU21623XXSP,2013-05-26 17:06:00,
2013-05-26 10:11:00,63.9,50.2,30.03,NNE,22,6.7,6.7,61,0.00,,,0.00,WUHU21623XXSP,2013-05-26 17:11:00,
2013-05-26 10:16:00,63.9,50.2,30.03,North,0,5.1,6.7,61,0.00,,,0.00,WUHU21623XXSP,2013-05-26 17:16:00,
2013-05-26 10:21:00,64.0,50.3,30.02,NNE,22,5.6,5.6,61,0.00,,,0.00,WUHU21623XXSP,2013-05-26 17:21:00,
2013-05-26 10:26:00,64.2,51.0,30.03,North,0,6.0,6.0,62,0.00,,,0.00,WUHU21623XXSP,2013-05-26 17:26:00,
2013-05-26 10:31:00,64.6,50.9,30.03,North,0,0.0,6.0,61,0.00,,,0.00,WUHU21623XXSP,2013-05-26 17:31:00,
2013-05-26 10:36:00,64.9,50.7,30.02,NNE,22,4.9,8.3,60,0.00,,,0.00,WUHU21623XXSP,2013-05-26 17:36:00,
2013-05-26 10:41:00,64.9,50.3,30.02,NNE,22,0.0,8.3,59,0.00,,,0.00,WUHU21623XXSP,2013-05-26 17:41:00,
2013-05-26 10:46:00,65.3,50.2,30.02,NNE,22,7.6,7.6,58,0.00,,,0.00,WUHU21623XXSP,2013-05-26 17:46:00,
2013-05-26 10:51:00,65.1,49.5,30.02,NNE,22,7.8,7.8,57,0.00,,,0.00,WUHU21623XXSP,2013-05-26 17:51:00,
2013-05-26 10:56:00,65.3,48.7,30.03,North,0,4.3,7.8,55,0.00,,,0.00,WUHU21623XXSP,2013-05-26 17:56:00,
2013-05-26 11:01:00,65.5,48.9,30.02,North,0,4.3,6.0,55,0.00,,,0.00,WUHU21623XXSP,2013-05-26 18:01:00,
2013-05-26 11:06:00,66.6,49.4,30.01,North,0,6.7,7.4,54,0.00,,,0.00,WUHU21623XXSP,2013-05-26 18:06:00,
2013-05-26 11:11:00,66.2,49.6,30.01,North,0,7.2,7.4,55,0.00,,,0.00,WUHU21623XXSP,2013-05-26 18:11:00,
2013-05-26 11:16:00,66.0,49.4,30.02,NW,315,1.6,7.2,55,0.00,,,0.00,WUHU21623XXSP,2013-05-26 18:16:00,
2013-05-26 11:21:00,65.5,48.4,30.01,North,0,5.6,6.3,54,0.00,,,0.00,WUHU21623XXSP,2013-05-26 18:21:00,
2013-05-26 11:26:00,65.5,48.4,30.02,NNW,337,0.0,6.3,54,0.00,,,0.00,WUHU21623XXSP,2013-05-26 18:26:00,
2013-05-26 11:31:00,65.8,48.2,30.01,NNE,22,8.3,8.3,53,0.00,,,0.00,WUHU21623XXSP,2013-05-26 18:31:00,
2013-05-26 11:36:00,65.7,48.1,30.01,NE,45,0.0,8.3,53,0.00,,,0.00,WUHU21623XXSP,2013-05-26 18:36:00,
2013-05-26 11:41:00,66.6,47.3,30.01,NW,315,0.0,8.3,50,0.00,,,0.00,WUHU21623XXSP,2013-05-26 18:41:00,
2013-05-26 11:46:00,66.6,47.9,30.01,NE,45,4.0,5.6,51,0.00,,,0.00,WUHU21623XXSP,2013-05-26 18:46:00,
2013-05-26 11:51:00,66.0,46.8,30.01,ENE,67,3.4,5.6,50,0.00,,,0.00,WUHU21623XXSP,2013-05-26 18:51:00,
2013-05-26 11:56:00,66.0,46.8,30.01,ESE,112,1.6,4.0,50,0.00,,,0.00,WUHU21623XXSP,2013-05-26 18:56:00,
2013-05-26 12:01:00,66.4,47.1,30.01,North,0,0.0,1.6,50,0.00,,,0.00,WUHU21623XXSP,2013-05-26 19:01:00,
2013-05-26 12:06:00,66.9,47.0,30.01,NNW,337,7.8,7.8,49,0.00,,,0.00,WUHU21623XXSP,2013-05-26 19:06:00,
2013-05-26 12:11:00,66.9,47.0,30.01,NNW,337,0.0,7.8,49,0.00,,,0.00,WUHU21623XXSP,2013-05-26 19:11:00,
2013-05-26 12:16:00,67.1,47.2,30.01,NNW,337,0.0,4.3,49,0.00,,,0.00,WUHU21623XXSP,2013-05-26 19:16:00,
2013-05-26 12:21:00,67.8,48.4,30.00,NNW,337,0.0,0.0,50,0.00,,,0.00,WUHU21623XXSP,2013-05-26 19:21:00,
2013-05-26 12:26:00,68.2,48.2,30.00,North,0,0.0,0.0,49,0.00,,,0.00,WUHU21623XXSP,2013-05-26 19:26:00,
2013-05-26 12:31:00,67.3,47.4,30.00,ENE,67,4.0,4.0,49,0.00,,,0.00,WUHU21623XXSP,2013-05-26 19:31:00,
2013-05-26 12:36:00,66.6,46.2,30.00,East,90,4.3,4.3,48,0.00,,,0.00,WUHU21623XXSP,2013-05-26 19:36:00,
2013-05-26 12:41:00,66.0,46.2,30.00,NE,45,0.0,4.3,49,0.00,,,0.00,WUHU21623XXSP,2013-05-26 19:41:00,
2013-05-26 12:46:00,66.2,46.9,30.00,NE,45,0.0,4.3,50,0.00,,,0.00,WUHU21623XXSP,2013-05-26 19:46:00,
2013-05-26 12:51:00,67.3,48.0,30.00,NE,45,0.0,2.7,50,0.00,,,0.00,WUHU21623XXSP,2013-05-26 19:51:00,
2013-05-26 12:56:00,67.6,48.2,30.00,North,0,0.0,4.7,50,0.00,,,0.00,WUHU21623XXSP,2013-05-26 19:56:00,
2013-05-26 13:01:00,67.8,47.3,29.99,West,270,7.8,7.8,48,0.00,,,0.00,WUHU21623XXSP,2013-05-26 20:01:00,
2013-05-26 13:06:00,67.5,47.0,30.00,NW,315,3.4,7.8,48,0.00,,,0.00,WUHU21623XXSP,2013-05-26 20:06:00,
2013-05-26 13:11:00,67.3,46.8,29.99,NW,315,3.4,5.6,48,0.00,,,0.00,WUHU21623XXSP,2013-05-26 20:11:00,
2013-05-26 13:16:00,66.9,46.5,29.99,NW,315,0.0,3.4,48,0.00,,,0.00,WUHU21623XXSP,2013-05-26 20:16:00,
2013-05-26 13:21:00,66.7,45.7,29.99,West,270,0.0,7.2,47,0.00,,,0.00,WUHU21623XXSP,2013-05-26 20:21:00,
2013-05-26 13:26:00,66.0,45.6,29.99,West,270,2.0,7.2,48,0.00,,,0.00,WUHU21623XXSP,2013-05-26 20:26:00,
2013-05-26 13:31:00,66.0,46.2,29.99,NW,315,0.0,4.7,49,0.00,,,0.00,WUHU21623XXSP,2013-05-26 20:31:00,
2013-05-26 13:36:00,66.7,46.3,29.99,WNW,292,0.0,5.8,48,0.00,,,0.00,WUHU21623XXSP,2013-05-26 20:36:00,
2013-05-26 13:41:00,67.1,47.2,29.99,NNW,337,0.0,5.8,49,0.00,,,0.00,WUHU21623XXSP,2013-05-26 20:41:00,
2013-05-26 13:46:00,67.6,47.7,29.99,NNW,337,0.0,0.0,49,0.00,,,0.00,WUHU21623XXSP,2013-05-26 20:46:00,
2013-05-26 13:51:00,68.5,48.5,29.99,NNW,337,0.0,0.0,49,0.00,,,0.00,WUHU21623XXSP,2013-05-26 20:51:00,
2013-05-26 13:56:00,68.7,48.1,29.99,NW,315,6.3,6.3,48,0.00,,,0.00,WUHU21623XXSP,2013-05-26 20:56:00,
2013-05-26 14:01:00,68.4,47.8,29.99,WSW,247,6.5,6.5,48,0.00,,,0.00,WUHU21623XXSP,2013-05-26 21:01:00,
2013-05-26 14:06:00,68.5,47.9,29.99,WSW,247,0.0,6.5,48,0.00,,,0.00,WUHU21623XXSP,2013-05-26 21:06:00,
2013-05-26 14:11:00,68.7,46.9,29.99,WSW,247,1.8,1.8,46,0.00,,,0.00,WUHU21623XXSP,2013-05-26 21:11:00,
2013-05-26 14:16:00,69.1,47.9,29.99,WSW,247,6.7,6.7,47,0.00,,,0.00,WUHU21623XXSP,2013-05-26 21:16:00,
2013-05-26 14:21:00,68.7,46.9,29.99,West,270,7.2,7.2,46,0.00,,,0.00,WUHU21623XXSP,2013-05-26 21:21:00,
2013-05-26 14:26:00,68.2,46.5,29.98,West,270,7.6,7.6,46,0.00,,,0.00,WUHU21623XXSP,2013-05-26 21:26:00,
2013-05-26 14:31:00,67.6,47.1,29.98,West,270,1.6,7.6,48,0.00,,,0.00,WUHU21623XXSP,2013-05-26 21:31:00,
2013-05-26 14:36:00,67.1,46.1,29.98,WSW,247,7.4,7.6,47,0.00,,,0.00,WUHU21623XXSP,2013-05-26 21:36:00,
2013-05-26 14:41:00,66.7,46.3,29.98,WSW,247,6.3,7.4,48,0.00,,,0.00,WUHU21623XXSP,2013-05-26 21:41:00,
2013-05-26 14:46:00,66.9,47.0,29.98,WSW,247,0.0,6.9,49,0.00,,,0.00,WUHU21623XXSP,2013-05-26 21:46:00,
2013-05-26 14:51:00,66.7,46.8,29.98,WSW,247,8.3,8.3,49,0.00,,,0.00,WUHU21623XXSP,2013-05-26 21:51:00,
2013-05-26 14:56:00,66.6,46.8,29.98,West,270,0.0,8.3,49,0.00,,,0.00,WUHU21623XXSP,2013-05-26 21:56:00,
2013-05-26 15:01:00,66.7,47.4,29.98,WSW,247,4.0,4.7,50,0.00,,,0.00,WUHU21623XXSP,2013-05-26 22:01:00,
2013-05-26 15:06:00,66.7,46.8,29.98,SSW,202,0.0,4.0,49,0.00,,,0.00,WUHU21623XXSP,2013-05-26 22:06:00,
2013-05-26 15:11:00,66.9,47.0,29.99,SSW,202,0.0,4.0,49,0.00,,,0.00,WUHU21623XXSP,2013-05-26 22:11:00,
2013-05-26 15:16:00,67.1,47.2,29.98,WSW,247,0.0,0.0,49,0.00,,,0.00,WUHU21623XXSP,2013-05-26 22:16:00,
2013-05-26 15:21:00,66.7,46.8,29.99,NNE,22,0.0,0.0,49,0.00,,,0.00,WUHU21623XXSP,2013-05-26 22:21:00,
2013-05-26 15:27:00,66.9,47.0,29.98,WNW,292,0.0,0.0,49,0.00,,,0.00,WUHU21623XXSP,2013-05-26 22:27:00,
2013-05-26 15:32:00,67.3,48.0,29.98,WNW,292,0.0,0.0,50,0.00,,,0.00,WUHU21623XXSP,2013-05-26 22:32:00,
2013-05-26 15:37:00,67.3,48.0,29.98,WNW,292,0.0,0.0,50,0.00,,,0.00,WUHU21623XXSP,2013-05-26 22:37:00,
2013-05-26 15:42:00,67.3,48.0,29.98,WNW,292,0.0,0.0,50,0.00,,,0.00,WUHU21623XXSP,2013-05-26 22:42:00,
2013-05-26 15:47:00,67.8,48.4,29.98,West,270,0.0,0.0,50,0.00,,,0.00,WUHU21623XXSP,2013-05-26 22:47:00,
2013-05-26 15:52:00,68.2,48.2,29.97,West,270,0.0,0.0,49,0.00,,,0.00,WUHU21623XXSP,2013-05-26 22:52:00,
2013-05-26 15:57:00,68.2,48.8,29.97,West,270,0.0,0.0,50,0.00,,,0.00,WUHU21623XXSP,2013-05-26 22:57:00,
2013-05-26 16:02:00,67.3,47.4,29.97,West,270,0.0,7.6,49,0.00,,,0.00,WUHU21623XXSP,2013-05-26 23:02:00,
2013-05-26 16:07:00,66.7,46.8,29.97,WSW,247,0.0,7.6,49,0.00,,,0.00,WUHU21623XXSP,2013-05-26 23:07:00,
2013-05-26 16:12:00,66.7,47.4,29.97,WSW,247,0.0,0.0,50,0.00,,,0.00,WUHU21623XXSP,2013-05-26 23:12:00,
2013-05-26 16:17:00,66.9,48.1,29.97,WSW,247,4.9,4.9,51,0.00,,,0.00,WUHU21623XXSP,2013-05-26 23:17:00,
2013-05-26 16:22:00,66.4,47.1,29.97,West,270,5.8,5.8,50,0.00,,,0.00,WUHU21623XXSP,2013-05-26 23:22:00,
2013-05-26 16:27:00,66.2,46.4,29.97,West,270,5.8,5.8,49,0.00,,,0.00,WUHU21623XXSP,2013-05-26 23:27:00,
2013-05-26 16:32:00,66.9,47.6,29.98,WSW,247,6.0,6.0,50,0.00,,,0.00,WUHU21623XXSP,2013-05-26 23:32:00,
2013-05-26 16:37:00,68.0,48.6,29.97,South,180,5.8,6.0,50,0.00,,,0.00,WUHU21623XXSP,2013-05-26 23:37:00,
2013-05-26 16:42:00,69.4,49.3,29.97,South,180,5.8,5.8,49,0.00,,,0.00,WUHU21623XXSP,2013-05-26 23:42:00,
2013-05-26 16:47:00,70.9,49.6,29.97,SSW,202,0.0,5.8,47,0.00,,,0.00,WUHU21623XXSP,2013-05-26 23:47:00,
2013-05-26 16:52:00,70.9,49.0,29.97,SSW,202,0.0,5.8,46,0.00,,,0.00,WUHU21623XXSP,2013-05-26 23:52:00,
2013-05-26 16:57:00,71.4,50.0,29.97,WSW,247,0.0,0.0,47,0.00,,,0.00,WUHU21623XXSP,2013-05-26 23:57:00,
2013-05-26 17:02:00,70.3,49.0,29.97,SW,225,0.0,8.5,47,0.00,,,0.00,WUHU21623XXSP,2013-05-27 00:02:00,
2013-05-26 17:07:00,70.0,48.7,29.97,SW,225,0.0,8.5,47,0.00,,,0.00,WUHU21623XXSP,2013-05-27 00:07:00,
2013-05-26 17:12:00,70.2,49.5,29.97,WSW,247,0.0,0.0,48,0.00,,,0.00,WUHU21623XXSP,2013-05-27 00:12:00,
2013-05-26 17:17:00,70.0,49.3,29.97,West,270,0.0,0.0,48,0.00,,,0.00,WUHU21623XXSP,2013-05-27 00:17:00,
2013-05-26 17:22:00,69.4,49.3,29.97,WSW,247,0.0,0.0,49,0.00,,,0.00,WUHU21623XXSP,2013-05-27 00:22:00,
2013-05-26 17:27:00,70.5,49.8,29.97,WSW,247,0.0,0.0,48,0.00,,,0.00,WUHU21623XXSP,2013-05-27 00:27:00,
2013-05-26 17:32:00,70.7,49.4,29.97,WSW,247,0.0,7.8,47,0.00,,,0.00,WUHU21623XXSP,2013-05-27 00:32:00,
2013-05-26 17:37:00,70.5,49.2,29.97,WSW,247,7.8,7.8,47,0.00,,,0.00,WUHU21623XXSP,2013-05-27 00:37:00,
2013-05-26 17:42:00,70.3,49.0,29.97,WSW,247,7.8,7.8,47,0.00,,,0.00,WUHU21623XXSP,2013-05-27 00:42:00,
2013-05-26 17:47:00,70.2,48.9,29.97,WSW,247,1.6,7.8,47,0.00,,,0.00,WUHU21623XXSP,2013-05-27 00:47:00,
2013-05-26 17:52:00,70.3,49.0,29.96,WSW,247,1.8,4.9,47,0.00,,,0.00,WUHU21623XXSP,2013-05-27 00:52:00,
2013-05-26 17:57:00,71.1,49.7,29.96,WSW,247,6.9,8.5,47,0.00,,,0.00,WUHU21623XXSP,2013-05-27 00:57:00,
2013-05-26 18:02:00,70.5,49.2,29.97,WSW,247,6.9,8.5,47,0.00,,,0.00,WUHU21623XXSP,2013-05-27 01:02:00,
2013-05-26 18:07:00,72.1,50.7,29.97,WSW,247,0.0,6.9,47,0.00,,,0.00,WUHU21623XXSP,2013-05-27 01:07:00,
2013-05-26 18:12:00,74.3,51.4,29.97,WSW,247,0.0,0.0,45,0.00,,,0.00,WUHU21623XXSP,2013-05-27 01:12:00,
2013-05-26 18:17:00,73.8,51.0,29.97,WSW,247,5.4,6.3,45,0.00,,,0.00,WUHU21623XXSP,2013-05-27 01:17:00,
2013-05-26 18:22:00,73.9,51.1,29.97,WSW,247,4.9,6.3,45,0.00,,,0.00,WUHU21623XXSP,2013-05-27 01:22:00,
2013-05-26 18:27:00,73.8,51.0,29.97,WSW,247,7.2,11.9,45,0.00,,,0.00,WUHU21623XXSP,2013-05-27 01:27:00,
2013-05-26 18:32:00,73.2,50.4,29.97,WSW,247,6.0,11.9,45,0.00,,,0.00,WUHU21623XXSP,2013-05-27 01:32:00,
2013-05-26 18:37:00,73.0,50.9,29.98,WSW,247,0.0,7.8,46,0.00,,,0.00,WUHU21623XXSP,2013-05-27 01:37:00,
2013-05-26 18:42:00,73.6,51.4,29.97,WSW,247,5.6,5.8,46,0.00,,,0.00,WUHU21623XXSP,2013-05-27 01:42:00,
2013-05-26 18:47:00,73.8,51.6,29.98,WSW,247,7.8,7.8,46,0.00,,,0.00,WUHU21623XXSP,2013-05-27 01:47:00,
2013-05-26 18:52:00,73.2,51.1,29.98,WSW,247,6.5,7.8,46,0.00,,,0.00,WUHU21623XXSP,2013-05-27 01:52:00,
2013-05-26 18:57:00,71.8,50.4,29.98,WSW,247,6.9,8.7,47,0.00,,,0.00,WUHU21623XXSP,2013-05-27 01:57:00,
2013-05-26 19:02:00,71.2,49.8,29.98,WSW,247,7.8,8.7,47,0.00,,,0.00,WUHU21623XXSP,2013-05-27 02:02:00,
2013-05-26 19:07:00,68.9,48.3,29.98,SW,225,0.0,7.8,48,0.00,,,0.00,WUHU21623XXSP,2013-05-27 02:07:00,
2013-05-26 19:12:00,65.5,46.8,29.98,SW,225,3.6,7.8,51,0.00,,,0.00,WUHU21623XXSP,2013-05-27 02:12:00,
2013-05-26 19:17:00,64.2,46.2,29.99,SW,225,6.0,7.6,52,0.00,,,0.00,WUHU21623XXSP,2013-05-27 02:17:00,
2013-05-26 19:22:00,63.1,45.7,29.99,WSW,247,0.0,6.5,53,0.00,,,0.00,WUHU21623XXSP,2013-05-27 02:22:00,
2013-05-26 19:27:00,61.9,45.5,29.99,SW,225,4.3,6.5,55,0.00,,,0.00,WUHU21623XXSP,2013-05-27 02:27:00,
2013-05-26 19:32:00,61.3,45.5,29.98,SSW,202,0.0,6.0,56,0.00,,,0.00,WUHU21623XXSP,2013-05-27 02:32:00,
2013-05-26 19:37:00,60.6,45.3,29.99,SSW,202,0.0,0.0,57,0.00,,,0.00,WUHU21623XXSP,2013-05-27 02:37:00,
2013-05-26 19:42:00,59.7,45.4,29.99,SSW,202,2.7,3.4,59,0.00,,,0.00,WUHU21623XXSP,2013-05-27 02:42:00,
2013-05-26 19:47:00,59.0,44.7,29.99,SSW,202,2.5,3.4,59,0.00,,,0.00,WUHU21623XXSP,2013-05-27 02:47:00,
2013-05-26 19:52:00,58.8,45.0,29.99,SSW,202,2.5,2.5,60,0.00,,,0.00,WUHU21623XXSP,2013-05-27 02:52:00,
2013-05-26 19:57:00,58.3,44.9,29.99,SSW,202,5.4,5.4,61,0.00,,,0.00,WUHU21623XXSP,2013-05-27 02:57:00,
2013-05-26 20:02:00,57.9,45.0,29.99,SSW,202,5.4,5.4,62,0.00,,,0.00,WUHU21623XXSP,2013-05-27 03:02:00,
2013-05-26 20:07:00,57.7,45.2,29.99,SSW,202,6.5,8.1,63,0.00,,,0.00,WUHU21623XXSP,2013-05-27 03:07:00,
2013-05-26 20:12:00,57.4,45.4,29.99,South,180,0.0,8.1,64,0.00,,,0.00,WUHU21623XXSP,2013-05-27 03:12:00,
2013-05-26 20:17:00,57.2,45.2,29.99,SSW,202,4.7,6.9,64,0.00,,,0.00,WUHU21623XXSP,2013-05-27 03:17:00,
2013-05-26 20:22:00,57.0,45.4,29.99,SSW,202,4.7,4.7,65,0.00,,,0.00,WUHU21623XXSP,2013-05-27 03:22:00,
2013-05-26 20:27:00,56.8,45.2,29.99,SSW,202,0.0,4.7,65,0.00,,,0.00,WUHU21623XXSP,2013-05-27 03:27:00,
2013-05-26 20:32:00,56.7,45.5,30.00,South,180,6.7,6.7,66,0.00,,,0.00,WUHU21623XXSP,2013-05-27 03:32:00,
2013-05-26 20:37:00,56.5,45.3,30.00,South,180,0.0,6.7,66,0.00,,,0.00,WUHU21623XXSP,2013-05-27 03:37:00,
2013-05-26 20:42:00,56.5,45.7,30.00,South,180,0.0,0.0,67,0.00,,,0.00,WUHU21623XXSP,2013-05-27 03:42:00,
2013-05-26 20:47:00,56.5,45.7,30.00,SSW,202,6.3,6.3,67,0.00,,,0.00,WUHU21623XXSP,2013-05-27 03:47:00,
2013-05-26 20:52:00,56.5,45.7,30.00,SSW,202,6.3,6.3,67,0.00,,,0.00,WUHU21623XXSP,2013-05-27 03:52:00,
2013-05-26 20:57:00,56.5,45.7,30.00,SSW,202,6.9,7.8,67,0.00,,,0.00,WUHU21623XXSP,2013-05-27 03:57:00,
2013-05-26 21:01:00,56.5,45.7,30.00,SW,225,7.4,7.8,67,0.00,,,0.00,WUHU21623XXSP,2013-05-27 04:01:00,
2013-05-26 21:06:00,56.3,45.5,30.00,SSW,202,6.5,7.4,67,0.00,,,0.00,WUHU21623XXSP,2013-05-27 04:06:00,
2013-05-26 21:11:00,56.3,45.5,30.00,SSW,202,6.5,6.5,67,0.00,,,0.00,WUHU21623XXSP,2013-05-27 04:11:00,
2013-05-26 21:16:00,56.3,45.9,30.00,SW,225,0.0,6.5,68,0.00,,,0.00,WUHU21623XXSP,2013-05-27 04:16:00,
2013-05-26 21:21:00,56.1,45.7,30.00,SW,225,7.4,7.4,68,0.00,,,0.00,WUHU21623XXSP,2013-05-27 04:21:00,
2013-05-26 21:26:00,56.1,45.7,30.01,South,180,8.3,8.3,68,0.00,,,0.00,WUHU21623XXSP,2013-05-27 04:26:00,
2013-05-26 21:31:00,55.9,45.5,30.00,SSW,202,7.4,8.3,68,0.00,,,0.00,WUHU21623XXSP,2013-05-27 04:31:00,
2013-05-26 21:36:00,55.9,45.5,30.00,SW,225,7.2,7.6,68,0.00,,,0.00,WUHU21623XXSP,2013-05-27 04:36:00,
2013-05-26 21:41:00,55.9,45.9,30.00,SW,225,6.5,7.4,69,0.00,,,0.00,WUHU21623XXSP,2013-05-27 04:41:00,
2013-05-26 21:46:00,55.9,45.9,30.01,SSW,202,5.8,7.4,69,0.00,,,0.00,WUHU21623XXSP,2013-05-27 04:46:00,
2013-05-26 21:51:00,55.8,45.8,30.01,SSW,202,4.5,7.4,69,0.00,,,0.00,WUHU21623XXSP,2013-05-27 04:51:00,
2013-05-26 21:56:00,55.6,46.0,30.01,SSW,202,4.5,6.5,70,0.00,,,0.00,WUHU21623XXSP,2013-05-27 04:56:00,
2013-05-26 22:01:00,55.6,46.0,30.01,South,180,8.7,8.7,70,0.00,,,0.00,WUHU21623XXSP,2013-05-27 05:01:00,
2013-05-26 22:06:00,55.2,46.0,30.01,SSW,202,7.8,8.7,71,0.00,,,0.00,WUHU21623XXSP,2013-05-27 05:06:00,
2013-05-26 22:11:00,55.2,46.0,30.01,SSW,202,2.2,10.3,71,0.00,,,0.00,WUHU21623XXSP,2013-05-27 05:11:00,
2013-05-26 22:16:00,55.0,45.8,30.01,SSW,202,5.8,10.3,71,0.00,,,0.00,WUHU21623XXSP,2013-05-27 05:16:00,
2013-05-26 22:21:00,54.9,45.7,30.01,SSW,202,5.1,6.9,71,0.00,,,0.00,WUHU21623XXSP,2013-05-27 05:21:00,
2013-05-26 22:26:00,54.7,45.5,30.01,SSW,202,2.5,5.1,71,0.00,,,0.00,WUHU21623XXSP,2013-05-27 05:26:00,
2013-05-26 22:31:00,54.5,45.3,30.01,SSW,202,6.7,6.7,71,0.00,,,0.00,WUHU21623XXSP,2013-05-27 05:31:00,
2013-05-26 22:36:00,54.5,45.7,30.01,South,180,4.7,6.7,72,0.00,,,0.00,WUHU21623XXSP,2013-05-27 05:36:00,
2013-05-26 22:41:00,54.3,45.5,30.01,SSW,202,6.3,7.8,72,0.00,,,0.00,WUHU21623XXSP,2013-05-27 05:41:00,
2013-05-26 22:46:00,54.1,45.7,30.01,SSW,202,0.0,7.8,73,0.00,,,0.00,WUHU21623XXSP,2013-05-27 05:46:00,
2013-05-26 22:51:00,54.0,45.6,30.01,SSW,202,0.0,4.5,73,0.00,,,0.00,WUHU21623XXSP,2013-05-27 05:51:00,
2013-05-26 22:56:00,53.8,45.4,30.01,SSW,202,1.6,7.2,73,0.00,,,0.00,WUHU21623XXSP,2013-05-27 05:56:00,
2013-05-26 23:01:00,53.6,45.5,30.01,South,180,8.9,8.9,74,0.00,,,0.00,WUHU21623XXSP,2013-05-27 06:01:00,
2013-05-26 23:06:00,53.4,45.3,30.01,South,180,6.0,8.9,74,0.00,,,0.00,WUHU21623XXSP,2013-05-27 06:06:00,
2013-05-26 23:11:00,53.4,45.3,30.01,South,180,5.6,7.6,74,0.00,,,0.00,WUHU21623XXSP,2013-05-27 06:11:00,
2013-05-26 23:16:00,53.4,45.3,30.01,SSW,202,4.5,7.2,74,0.00,,,0.00,WUHU21623XXSP,2013-05-27 06:16:00,
2013-05-26 23:21:00,53.2,45.5,30.01,South,180,2.0,7.6,75,0.00,,,0.00,WUHU21623XXSP,2013-05-27 06:21:00,
2013-05-26 23:26:00,53.2,45.1,30.01,South,180,2.5,7.6,74,0.00,,,0.00,WUHU21623XXSP,2013-05-27 06:26:00,
2013-05-26 23:31:00,52.9,45.2,30.01,South,180,7.2,7.8,75,0.00,,,0.00,WUHU21623XXSP,2013-05-27 06:31:00,
2013-05-26 23:36:00,52.9,45.2,30.01,South,180,6.9,7.8,75,0.00,,,0.00,WUHU21623XXSP,2013-05-27 06:36:00,
2013-05-26 23:41:00,52.9,45.2,30.01,South,180,7.2,7.2,75,0.00,,,0.00,WUHU21623XXSP,2013-05-27 06:41:00,
2013-05-26 23:46:00,52.9,45.5,30.01,SSE,157,7.8,7.8,76,0.00,,,0.00,WUHU21623XXSP,2013-05-27 06:46:00,
2013-05-26 23:51:00,52.9,45.5,30.01,SSE,157,4.0,7.8,76,0.00,,,0.00,WUHU21623XXSP,2013-05-27 06:51:00,
2013-05-26 23:56:00,52.9,45.5,30.01,South,180,6.7,7.4,76,0.00,,,0.00,WUHU21623XXSP,2013-05-27 06:56:00,